UAL434 KLAX-KSFO

Flight info

Callsign UAL434
Flight time 0h 55m
Altitude 36000
Route SUMMR2 STOKD SERFR SERFR4
Aircraft B738/M-SDE2E3FGHIRWXY/LB1

Departure

Time 2026-04-22 00:46
Airport Los Angeles International Airport (KLAX)

Arrival

Time 2026-04-22 01:42
Airport San Francisco International Airport (KSFO)
Time Latitude Longitude Altitude Speed Heading
2026-04-22 00:31 33.94159 -118.40026 92 ft 0 kts 90°
2026-04-22 00:37 33.94159 -118.40027 92 ft 3 kts 92°
2026-04-22 00:37 33.94161 -118.40050 93 ft 3 kts 105°
2026-04-22 00:38 33.94168 -118.40071 92 ft 3 kts 130°
2026-04-22 00:38 33.94182 -118.40086 91 ft 3 kts 158°
2026-04-22 00:38 33.94195 -118.40091 91 ft 1 kts 173°
2026-04-22 00:38 33.94198 -118.40091 91 ft 0 kts 173°
2026-04-22 00:40 33.94190 -118.40090 91 ft 4 kts 175°
2026-04-22 00:41 33.94140 -118.40085 92 ft 11 kts 177°
2026-04-22 00:41 33.94049 -118.40070 92 ft 16 kts 163°
2026-04-22 00:41 33.93925 -118.40045 94 ft 20 kts 159°
2026-04-22 00:41 33.93888 -118.39904 96 ft 19 kts 85°
2026-04-22 00:42 33.93905 -118.39745 94 ft 20 kts 83°
2026-04-22 00:42 33.93921 -118.39578 94 ft 20 kts 82°
2026-04-22 00:42 33.93939 -118.39403 96 ft 23 kts 83°
2026-04-22 00:42 33.93962 -118.39191 92 ft 28 kts 83°
2026-04-22 00:43 33.93986 -118.38946 93 ft 30 kts 82°
2026-04-22 00:43 33.94012 -118.38695 96 ft 29 kts 83°
2026-04-22 00:43 33.94037 -118.38458 96 ft 28 kts 83°
2026-04-22 00:43 33.94059 -118.38236 94 ft 26 kts 84°
2026-04-22 00:44 33.94077 -118.38055 92 ft 14 kts 91°
2026-04-22 00:44 33.94074 -118.38035 92 ft 0 kts 104°
2026-04-22 00:45 33.94074 -118.38034 92 ft 0 kts 104°
2026-04-22 00:45 33.94061 -118.38016 94 ft 8 kts 142°
2026-04-22 00:45 33.93986 -118.38030 93 ft 18 kts 242°
2026-04-22 00:45 33.93956 -118.38286 97 ft 55 kts 263°
2026-04-22 00:46 33.93885 -118.38988 96 ft 111 kts 263°
2026-04-22 00:46 33.93774 -118.40086 150 ft 148 kts 263°
2026-04-22 00:46 33.93639 -118.41392 468 ft 166 kts 264°
2026-04-22 00:46 33.93484 -118.42782 1086 ft 166 kts 262°
2026-04-22 00:47 33.93335 -118.44224 1518 ft 184 kts 264°
2026-04-22 00:47 33.93191 -118.45792 1979 ft 192 kts 264°
2026-04-22 00:47 33.93046 -118.47487 2165 ft 217 kts 265°
2026-04-22 00:47 33.92890 -118.49376 2551 ft 231 kts 265°
2026-04-22 00:48 33.92729 -118.51289 3291 ft 233 kts 264°
2026-04-22 00:48 33.92565 -118.53289 3744 ft 245 kts 264°
2026-04-22 00:48 33.92396 -118.55348 4408 ft 248 kts 264°
2026-04-22 00:48 33.92223 -118.57435 5099 ft 252 kts 263°
2026-04-22 00:49 33.92051 -118.59513 5801 ft 253 kts 263°
2026-04-22 00:49 33.91874 -118.61643 6517 ft 256 kts 262°
2026-04-22 00:49 33.91736 -118.63796 7187 ft 259 kts 266°
2026-04-22 00:49 33.91720 -118.65972 7965 ft 259 kts 267°
2026-04-22 00:50 33.91725 -118.68146 8753 ft 259 kts 268°
2026-04-22 00:50 33.91732 -118.70288 9571 ft 258 kts 267°
2026-04-22 00:50 33.91734 -118.72459 10294 ft 262 kts 267°
2026-04-22 00:50 33.91728 -118.74749 10492 ft 285 kts 267°
2026-04-22 00:51 33.91718 -118.77225 10667 ft 306 kts 267°
2026-04-22 00:51 33.91707 -118.79875 10946 ft 322 kts 267°
2026-04-22 00:51 33.91695 -118.82600 11537 ft 327 kts 267°
2026-04-22 00:51 33.91719 -118.85311 12148 ft 328 kts 269°
2026-04-22 00:52 33.91808 -118.88067 12876 ft 330 kts 269°
2026-04-22 00:52 33.91908 -118.90825 13645 ft 331 kts 269°
2026-04-22 00:52 33.92001 -118.93605 14342 ft 333 kts 269°
2026-04-22 00:52 33.92086 -118.96408 15021 ft 334 kts 269°
2026-04-22 00:53 33.92169 -118.99191 15719 ft 336 kts 270°
2026-04-22 00:53 33.92596 -119.01990 16418 ft 344 kts 284°
2026-04-22 00:53 33.93656 -119.04612 17107 ft 353 kts 295°
2026-04-22 00:53 33.94979 -119.07138 17799 ft 356 kts 296°
2026-04-22 00:54 33.96331 -119.09660 18443 ft 359 kts 296°
2026-04-22 00:54 33.97674 -119.12203 19002 ft 361 kts 296°
2026-04-22 00:54 33.98997 -119.14749 19554 ft 363 kts 295°
2026-04-22 00:54 34.00345 -119.17337 20124 ft 367 kts 297°
2026-04-22 00:55 34.02080 -119.19663 20648 ft 384 kts 313°
2026-04-22 00:55 34.04255 -119.21579 21325 ft 387 kts 316°
2026-04-22 00:55 34.08713 -119.25336 22327 ft 394 kts 316°
2026-04-22 00:56 34.10962 -119.27238 22853 ft 395 kts 316°
2026-04-22 00:56 34.13223 -119.29162 23355 ft 398 kts 316°
2026-04-22 00:56 34.15487 -119.31100 23804 ft 401 kts 316°
2026-04-22 00:56 34.17738 -119.33036 24195 ft 403 kts 316°
2026-04-22 00:57 34.20028 -119.35009 24599 ft 405 kts 316°
2026-04-22 00:57 34.22327 -119.36992 25050 ft 407 kts 315°
2026-04-22 00:57 34.24629 -119.38979 25481 ft 408 kts 315°
2026-04-22 00:57 34.26951 -119.40986 25854 ft 410 kts 315°
2026-04-22 00:58 34.29282 -119.43003 26195 ft 413 kts 315°
2026-04-22 00:58 34.31625 -119.45031 26552 ft 416 kts 315°
2026-04-22 00:58 34.33979 -119.47068 26909 ft 418 kts 315°
2026-04-22 00:58 34.36354 -119.49127 27262 ft 420 kts 315°
2026-04-22 00:59 34.38730 -119.51190 27598 ft 422 kts 315°
2026-04-22 00:59 34.41120 -119.53277 27968 ft 422 kts 314°
2026-04-22 00:59 34.43307 -119.55605 28317 ft 416 kts 307°
2026-04-22 00:59 34.45318 -119.58066 28671 ft 415 kts 306°
2026-04-22 01:00 34.47316 -119.60607 28943 ft 417 kts 305°
2026-04-22 01:00 34.49288 -119.63190 29285 ft 416 kts 305°
2026-04-22 01:00 34.51340 -119.65686 29825 ft 419 kts 309°
2026-04-22 01:00 34.53464 -119.68094 30248 ft 415 kts 306°
2026-04-22 01:01 34.55461 -119.70616 30562 ft 414 kts 305°
2026-04-22 01:01 34.57433 -119.73170 30942 ft 412 kts 304°
2026-04-22 01:01 34.59372 -119.75658 31381 ft 410 kts 305°
2026-04-22 01:01 34.61369 -119.78147 31762 ft 411 kts 307°
2026-04-22 01:02 34.63404 -119.80577 32063 ft 410 kts 306°
2026-04-22 01:02 34.65378 -119.83039 32417 ft 410 kts 306°
2026-04-22 01:02 34.67411 -119.85488 32858 ft 406 kts 305°
2026-04-22 01:02 34.69319 -119.87978 33393 ft 401 kts 305°
2026-04-22 01:03 34.71258 -119.90441 33722 ft 403 kts 306°
2026-04-22 01:03 34.73206 -119.92881 34036 ft 402 kts 305°
2026-04-22 01:03 34.75124 -119.95315 34400 ft 400 kts 306°
2026-04-22 01:03 34.77075 -119.97732 34609 ft 401 kts 306°
2026-04-22 01:04 34.79048 -120.00160 34826 ft 402 kts 306°
2026-04-22 01:04 34.81004 -120.02568 35131 ft 399 kts 306°
2026-04-22 01:04 34.82956 -120.04983 35329 ft 400 kts 306°
2026-04-22 01:04 34.84911 -120.07405 35551 ft 401 kts 306°
2026-04-22 01:05 34.86852 -120.09809 35793 ft 402 kts 306°
2026-04-22 01:05 34.88814 -120.12259 36006 ft 402 kts 306°
2026-04-22 01:05 34.92780 -120.17134 36126 ft 403 kts 306°
2026-04-22 01:06 34.96622 -120.22017 36101 ft 397 kts 306°
2026-04-22 01:06 35.00468 -120.26857 36106 ft 395 kts 306°
2026-04-22 01:07 35.04280 -120.31634 36080 ft 393 kts 304°
2026-04-22 01:07 35.08086 -120.36458 36107 ft 394 kts 306°
2026-04-22 01:08 35.12077 -120.41108 36110 ft 398 kts 309°
2026-04-22 01:08 35.16190 -120.45642 36116 ft 399 kts 309°
2026-04-22 01:09 35.20280 -120.50182 36082 ft 400 kts 309°
2026-04-22 01:09 35.24384 -120.54777 36124 ft 401 kts 309°
2026-04-22 01:10 35.28509 -120.59411 36101 ft 403 kts 309°
2026-04-22 01:10 35.31949 -120.63290 36089 ft 404 kts 309°
2026-04-22 01:11 35.36088 -120.67956 36095 ft 403 kts 309°
2026-04-22 01:11 35.40190 -120.72588 36123 ft 402 kts 309°
2026-04-22 01:12 35.44279 -120.77253 36114 ft 400 kts 309°
2026-04-22 01:12 35.48393 -120.81865 36115 ft 401 kts 310°
2026-04-22 01:13 35.52792 -120.86155 36115 ft 406 kts 315°
2026-04-22 01:13 35.57340 -120.90258 36162 ft 405 kts 315°
2026-04-22 01:14 35.61856 -120.94383 36120 ft 403 kts 314°
2026-04-22 01:14 35.66341 -120.98535 36109 ft 402 kts 314°
2026-04-22 01:15 35.68557 -121.00601 35812 ft 405 kts 314°
2026-04-22 01:15 35.70783 -121.02675 35516 ft 398 kts 314°
2026-04-22 01:15 35.72990 -121.04732 35133 ft 393 kts 314°
2026-04-22 01:15 35.75136 -121.06735 34763 ft 390 kts 313°
2026-04-22 01:16 35.77298 -121.08756 34363 ft 387 kts 313°
2026-04-22 01:16 35.79436 -121.10758 33936 ft 384 kts 313°
2026-04-22 01:16 35.81556 -121.12743 33480 ft 381 kts 313°
2026-04-22 01:16 35.83661 -121.14716 33071 ft 378 kts 313°
2026-04-22 01:17 35.85754 -121.16678 32674 ft 374 kts 313°
2026-04-22 01:17 35.87812 -121.18608 32283 ft 369 kts 313°
2026-04-22 01:17 35.89835 -121.20511 31928 ft 374 kts 313°
2026-04-22 01:17 35.91948 -121.22512 31604 ft 388 kts 313°
2026-04-22 01:18 35.94108 -121.24551 31150 ft 391 kts 313°
2026-04-22 01:18 35.96269 -121.26580 30734 ft 388 kts 313°
2026-04-22 01:18 35.98408 -121.28583 30336 ft 383 kts 313°
2026-04-22 01:18 36.00517 -121.30565 29898 ft 378 kts 313°
2026-04-22 01:19 36.02574 -121.32501 29495 ft 373 kts 313°
2026-04-22 01:19 36.04626 -121.34440 29036 ft 367 kts 312°
2026-04-22 01:19 36.06584 -121.36410 28674 ft 366 kts 314°
2026-04-22 01:19 36.08798 -121.38081 28486 ft 372 kts 318°
2026-04-22 01:20 36.11007 -121.39747 28162 ft 371 kts 317°
2026-04-22 01:20 36.13165 -121.41420 27788 ft 369 kts 317°
2026-04-22 01:20 36.15333 -121.43102 27392 ft 365 kts 317°
2026-04-22 01:20 36.17477 -121.44773 26963 ft 360 kts 316°
2026-04-22 01:21 36.19578 -121.46415 26585 ft 354 kts 316°
2026-04-22 01:21 36.21656 -121.48041 26247 ft 353 kts 316°
2026-04-22 01:21 36.23711 -121.49656 25835 ft 353 kts 316°
2026-04-22 01:21 36.25784 -121.51283 25432 ft 351 kts 316°
2026-04-22 01:22 36.27834 -121.52898 25067 ft 345 kts 317°
2026-04-22 01:22 36.29867 -121.54465 24650 ft 341 kts 317°
2026-04-22 01:22 36.31854 -121.55999 24363 ft 335 kts 317°
2026-04-22 01:22 36.33829 -121.57533 23974 ft 339 kts 316°
2026-04-22 01:23 36.35778 -121.59174 23621 ft 337 kts 315°
2026-04-22 01:23 36.37753 -121.60757 23181 ft 335 kts 317°
2026-04-22 01:23 36.39744 -121.62240 22799 ft 332 kts 317°
2026-04-22 01:23 36.41707 -121.63757 22464 ft 331 kts 317°
2026-04-22 01:24 36.43657 -121.65287 22095 ft 332 kts 317°
2026-04-22 01:24 36.45610 -121.66828 21686 ft 332 kts 317°
2026-04-22 01:24 36.47564 -121.68366 21303 ft 332 kts 317°
2026-04-22 01:24 36.49497 -121.69887 20965 ft 333 kts 318°
2026-04-22 01:25 36.51448 -121.71435 20606 ft 332 kts 318°
2026-04-22 01:25 36.53396 -121.72976 20249 ft 332 kts 318°
2026-04-22 01:25 36.55362 -121.74495 19886 ft 330 kts 317°
2026-04-22 01:25 36.57286 -121.76062 19506 ft 330 kts 319°
2026-04-22 01:26 36.59207 -121.77587 19164 ft 332 kts 319°
2026-04-22 01:26 36.61176 -121.79142 18739 ft 337 kts 321°
2026-04-22 01:26 36.63168 -121.80712 18360 ft 338 kts 321°
2026-04-22 01:26 36.65154 -121.82279 17929 ft 337 kts 321°
2026-04-22 01:27 36.67136 -121.83847 17520 ft 336 kts 321°
2026-04-22 01:27 36.69103 -121.85407 17121 ft 334 kts 321°
2026-04-22 01:27 36.71031 -121.86937 16736 ft 332 kts 321°
2026-04-22 01:27 36.72974 -121.88480 16381 ft 329 kts 322°
2026-04-22 01:28 36.75039 -121.89764 15944 ft 339 kts 337°
2026-04-22 01:28 36.77361 -121.90449 15512 ft 343 kts 342°
2026-04-22 01:28 36.79709 -121.91059 15107 ft 344 kts 343°
2026-04-22 01:28 36.82055 -121.91670 14737 ft 344 kts 343°
2026-04-22 01:29 36.84370 -121.92289 14368 ft 344 kts 343°
2026-04-22 01:29 36.86707 -121.92928 14008 ft 343 kts 343°
2026-04-22 01:29 36.89037 -121.93575 13619 ft 343 kts 343°
2026-04-22 01:29 36.91366 -121.94225 13223 ft 342 kts 343°
2026-04-22 01:30 36.93687 -121.94875 12839 ft 340 kts 343°
2026-04-22 01:30 36.95984 -121.95551 12487 ft 338 kts 341°
2026-04-22 01:30 36.98241 -121.96384 12089 ft 334 kts 339°
2026-04-22 01:30 37.00424 -121.97255 11726 ft 331 kts 338°
2026-04-22 01:31 37.02610 -121.98139 11364 ft 329 kts 338°
2026-04-22 01:31 37.04785 -121.99011 11023 ft 326 kts 338°
2026-04-22 01:31 37.06942 -121.99868 10687 ft 323 kts 339°
2026-04-22 01:31 37.09080 -122.00712 10385 ft 321 kts 339°
2026-04-22 01:32 37.11190 -122.01540 10220 ft 313 kts 339°
2026-04-22 01:32 37.13238 -122.02341 10084 ft 304 kts 339°
2026-04-22 01:32 37.15214 -122.03114 9840 ft 300 kts 339°
2026-04-22 01:32 37.17193 -122.03891 9529 ft 293 kts 339°
2026-04-22 01:33 37.19115 -122.04644 9260 ft 287 kts 339°
2026-04-22 01:33 37.21024 -122.05394 8957 ft 286 kts 339°
2026-04-22 01:33 37.22912 -122.06138 8696 ft 283 kts 338°
2026-04-22 01:33 37.24789 -122.06897 8377 ft 282 kts 339°
2026-04-22 01:34 37.26659 -122.07622 8096 ft 278 kts 338°
2026-04-22 01:34 37.28482 -122.08326 7761 ft 271 kts 339°
2026-04-22 01:34 37.30266 -122.09024 7432 ft 265 kts 338°
2026-04-22 01:34 37.31987 -122.09700 7101 ft 261 kts 338°
2026-04-22 01:35 37.33732 -122.10390 6768 ft 259 kts 338°
2026-04-22 01:35 37.35441 -122.11068 6425 ft 262 kts 339°
2026-04-22 01:35 37.37189 -122.11755 6077 ft 263 kts 338°
2026-04-22 01:35 37.38937 -122.12397 5768 ft 259 kts 340°
2026-04-22 01:36 37.40662 -122.12980 5445 ft 251 kts 341°
2026-04-22 01:36 37.42302 -122.13531 5143 ft 241 kts 340°
2026-04-22 01:36 37.43891 -122.14068 4836 ft 232 kts 339°
2026-04-22 01:36 37.45428 -122.14589 4545 ft 224 kts 339°
2026-04-22 01:37 37.46921 -122.15082 4278 ft 220 kts 340°
2026-04-22 01:37 37.48399 -122.15571 4016 ft 219 kts 341°
2026-04-22 01:37 37.49826 -122.16042 3769 ft 218 kts 339°
2026-04-22 01:37 37.51276 -122.16521 3511 ft 217 kts 341°
2026-04-22 01:38 37.52728 -122.17010 3277 ft 214 kts 337°
2026-04-22 01:38 37.53889 -122.18010 3177 ft 198 kts 301°
2026-04-22 01:38 37.54532 -122.19476 2948 ft 187 kts 297°
2026-04-22 01:38 37.55155 -122.20875 2702 ft 180 kts 296°
2026-04-22 01:39 37.55740 -122.22244 2469 ft 173 kts 295°
2026-04-22 01:39 37.56293 -122.23568 2226 ft 170 kts 295°
2026-04-22 01:39 37.56848 -122.24902 2006 ft 172 kts 293°
2026-04-22 01:39 37.57403 -122.26237 1768 ft 172 kts 294°
2026-04-22 01:40 37.57959 -122.27571 1518 ft 168 kts 293°
2026-04-22 01:40 37.58485 -122.28829 1284 ft 155 kts 293°
2026-04-22 01:40 37.58962 -122.29976 1114 ft 144 kts 293°
2026-04-22 01:40 37.59422 -122.31083 893 ft 140 kts 295°
2026-04-22 01:41 37.59871 -122.32159 690 ft 137 kts 295°
2026-04-22 01:41 37.60328 -122.33257 519 ft 143 kts 295°
2026-04-22 01:41 37.60795 -122.34358 315 ft 140 kts 295°
2026-04-22 01:41 37.61217 -122.35377 135 ft 127 kts 295°
2026-04-22 01:42 37.61622 -122.36344 26 ft 117 kts 295°
2026-04-22 01:42 37.61928 -122.37090 20 ft 67 kts 297°
2026-04-22 01:42 37.62074 -122.37438 20 ft 37 kts 297°
2026-04-22 01:42 37.62138 -122.37685 21 ft 25 kts 241°
2026-04-22 01:43 37.62031 -122.37841 20 ft 22 kts 228°
2026-04-22 01:43 37.61934 -122.37977 20 ft 19 kts 232°
2026-04-22 01:43 37.61932 -122.38127 20 ft 18 kts 300°
2026-04-22 01:43 37.61926 -122.38203 20 ft 0 kts 192°
2026-04-22 01:44 37.61907 -122.38189 21 ft 9 kts 144°
2026-04-22 01:44 37.61857 -122.38166 20 ft 0 kts 167°